When you browse on this site, cookies collect data to enhance your experience and personalize the content and advertising you see.
Visit our Privacy Policy to learn more. By continuing to use the site, you agree to this use of cookies and data.
  • In Österreich
  • Länderverzeichnis
  • Für 7 Tage
  • Wassertemperatur
  • Wetterkarte
  • News
  • Widgets
  • user-avatar
    Anmelden

    Stündliche Wetter Zorya

    Heute, 27 Januar, Montag

    Zeit Temperatur Niederschläge Wind Luftdruck Luftfeuchtigkeit
    00:00 -2°C° 0 mm 4 m/S 749 mmHg 90%
    01:00 -3°C° 0 mm 4 m/S 749 mmHg 91%
    02:00 -3°C° 0 mm 4 m/S 749 mmHg 93%
    03:00 -2°C° 0 mm 3 m/S 749 mmHg 94%
    04:00 -2°C° 0 mm 3 m/S 749 mmHg 94%
    05:00 -2°C° 0 mm 3 m/S 749 mmHg 95%
    06:00 -2°C° 0 mm 3 m/S 749 mmHg 95%
    07:00 -2°C° 0 mm 3 m/S 749 mmHg 95%
    08:00 -2°C° 0 mm 3 m/S 749 mmHg 95%
    09:00 -2°C° 0 mm 3 m/S 749 mmHg 92%
    10:00 -1°C° 0 mm 3 m/S 749 mmHg 88%
    11:00 0°C° 0 mm 3 m/S 749 mmHg 85%
    12:00 0°C° 0 mm 3 m/S 749 mmHg 84%
    13:00 0°C° 0 mm 3 m/S 748 mmHg 83%
    14:00 +1°C° 0 mm 3 m/S 748 mmHg 82%
    15:00 +1°C° 0 mm 2 m/S 748 mmHg 85%
    16:00 -1°C° 0 mm 2 m/S 748 mmHg 88%
    17:00 -1°C° 0 mm 2 m/S 747 mmHg 92%
    18:00 -1°C° 0 mm 2 m/S 747 mmHg 91%
    19:00 -2°C° 0 mm 2 m/S 747 mmHg 91%
    20:00 -2°C° 0 mm 2 m/S 747 mmHg 91%
    21:00 -2°C° 0 mm 2 m/S 747 mmHg 90%
    22:00 -2°C° 0 mm 2 m/S 747 mmHg 90%
    23:00 -2°C° 0 mm 2 m/S 746 mmHg 90%

    Morgen, 28 Januar, Dienstag

    Zeit Temperatur Niederschläge Wind Luftdruck Luftfeuchtigkeit
    00:00 -2°C° 0 mm 2 m/S 746 mmHg 90%
    01:00 -2°C° 0 mm 2 m/S 746 mmHg 91%
    02:00 -2°C° 0 mm 2 m/S 746 mmHg 91%
    03:00 -2°C° 0 mm 2 m/S 746 mmHg 91%
    04:00 -2°C° 0 mm 2 m/S 745 mmHg 91%
    05:00 -2°C° 0 mm 2 m/S 745 mmHg 91%
    06:00 -2°C° 0 mm 2 m/S 745 mmHg 90%
    07:00 -2°C° 0 mm 2 m/S 745 mmHg 90%
    08:00 -2°C° 0 mm 2 m/S 745 mmHg 89%
    09:00 -1°C° 0 mm 2 m/S 745 mmHg 86%
    10:00 -1°C° 0 mm 2 m/S 745 mmHg 84%
    11:00 +1°C° 0 mm 2 m/S 745 mmHg 81%
    12:00 +1°C° 0 mm 2 m/S 745 mmHg 81%
    13:00 +2°C° 0 mm 2 m/S 744 mmHg 81%
    14:00 +2°C° 0 mm 2 m/S 744 mmHg 81%
    15:00 +1°C° 0 mm 2 m/S 744 mmHg 84%
    16:00 +1°C° 0 mm 2 m/S 744 mmHg 88%
    17:00 -1°C° 0 mm 2 m/S 744 mmHg 92%
    18:00 -1°C° 0 mm 2 m/S 744 mmHg 93%
    19:00 -1°C° 0 mm 3 m/S 743 mmHg 93%
    20:00 -2°C° 0 mm 3 m/S 743 mmHg 94%
    21:00 -2°C° 0 mm 3 m/S 743 mmHg 94%
    22:00 -2°C° 0 mm 3 m/S 743 mmHg 94%
    23:00 -2°C° 0 mm 3 m/S 743 mmHg 94%

    übermorgen, 29 Januar, Mittwoch

    Zeit Temperatur Niederschläge Wind Luftdruck Luftfeuchtigkeit
    00:00 -1°C° 0 mm 3 m/S 742 mmHg 94%
    01:00 -1°C° 0 mm 3 m/S 742 mmHg 94%
    02:00 -1°C° 0 mm 3 m/S 741 mmHg 95%
    03:00 -1°C° 0.1 mm 3 m/S 741 mmHg 95%
    04:00 -1°C° 0.1 mm 4 m/S 740 mmHg 96%
    05:00 -1°C° 0.1 mm 4 m/S 739 mmHg 97%
    06:00 -1°C° 0.1 mm 4 m/S 739 mmHg 97%
    07:00 0°C° 0.1 mm 4 m/S 738 mmHg 96%
    08:00 0°C° 0.1 mm 5 m/S 738 mmHg 96%
    09:00 0°C° 0.1 mm 5 m/S 737 mmHg 96%
    10:00 0°C° 0.1 mm 5 m/S 737 mmHg 96%
    11:00 0°C° 0.1 mm 5 m/S 736 mmHg 96%
    12:00 0°C° 0.4 mm 5 m/S 736 mmHg 96%
    13:00 0°C° 0.4 mm 5 m/S 735 mmHg 96%
    14:00 0°C° 0.4 mm 5 m/S 734 mmHg 96%
    15:00 0°C° 0.2 mm 5 m/S 734 mmHg 96%
    16:00 0°C° 0.2 mm 5 m/S 733 mmHg 96%
    17:00 0°C° 0.2 mm 5 m/S 733 mmHg 96%
    18:00 0°C° 0.2 mm 5 m/S 732 mmHg 96%
    19:00 +1°C° 0.2 mm 5 m/S 732 mmHg 96%
    20:00 +1°C° 0.2 mm 5 m/S 731 mmHg 96%
    21:00 +1°C° 0.9 mm 5 m/S 731 mmHg 96%
    22:00 +1°C° 0.9 mm 5 m/S 730 mmHg 96%
    23:00 +1°C° 0.9 mm 5 m/S 730 mmHg 97%

    30 Januar, Donnerstag

    Zeit Temperatur Niederschläge Wind Luftdruck Luftfeuchtigkeit
    00:00 0°C° 0.4 mm 4 m/S 730 mmHg 97%
    01:00 0°C° 0.4 mm 4 m/S 729 mmHg 97%
    02:00 -1°C° 0.4 mm 4 m/S 729 mmHg 97%
    03:00 -1°C° 0.6 mm 5 m/S 729 mmHg 97%
    04:00 -3°C° 0.6 mm 6 m/S 729 mmHg 97%
    05:00 -3°C° 0.6 mm 7 m/S 729 mmHg 96%
    06:00 -3°C° 1 mm 7 m/S 729 mmHg 96%
    07:00 -4°C° 1 mm 8 m/S 730 mmHg 96%
    08:00 -4°C° 1 mm 9 m/S 730 mmHg 95%
    09:00 -4°C° 1.1 mm 9 m/S 730 mmHg 96%
    10:00 -4°C° 1.1 mm 10 m/S 730 mmHg 96%
    11:00 -4°C° 1.1 mm 10 m/S 730 mmHg 96%
    12:00 -4°C° 1.4 mm 10 m/S 730 mmHg 96%
    13:00 -4°C° 1.4 mm 10 m/S 730 mmHg 96%
    14:00 -4°C° 1.4 mm 10 m/S 730 mmHg 97%
    15:00 -4°C° 1.5 mm 10 m/S 731 mmHg 97%
    16:00 -4°C° 1.5 mm 9 m/S 731 mmHg 97%
    17:00 -4°C° 1.5 mm 9 m/S 731 mmHg 97%
    18:00 -3°C° 0.9 mm 7 m/S 731 mmHg 97%
    19:00 -3°C° 0.9 mm 6 m/S 731 mmHg 98%
    20:00 -2°C° 0.9 mm 5 m/S 731 mmHg 98%
    21:00 -2°C° 0.3 mm 5 m/S 732 mmHg 98%
    22:00 -1°C° 0.3 mm 5 m/S 733 mmHg 98%
    23:00 -1°C° 0.3 mm 4 m/S 733 mmHg 98%

    31 Januar, Freitag

    Zeit Temperatur Niederschläge Wind Luftdruck Luftfeuchtigkeit
    00:00 -1°C° 0.1 mm 5 m/S 734 mmHg 98%
    01:00 -2°C° 0.1 mm 5 m/S 734 mmHg 98%
    02:00 -2°C° 0.1 mm 5 m/S 735 mmHg 97%
    03:00 -2°C° 0.1 mm 5 m/S 736 mmHg 97%
    04:00 -2°C° 0.1 mm 5 m/S 736 mmHg 97%
    05:00 -2°C° 0.1 mm 5 m/S 737 mmHg 97%
    06:00 -3°C° 0.2 mm 6 m/S 738 mmHg 96%
    07:00 -3°C° 0.2 mm 6 m/S 738 mmHg 96%
    08:00 -3°C° 0.2 mm 6 m/S 739 mmHg 95%
    09:00 -3°C° 0 mm 6 m/S 739 mmHg 95%
    10:00 -3°C° 0 mm 6 m/S 740 mmHg 95%
    11:00 -2°C° 0 mm 5 m/S 740 mmHg 95%
    12:00 -2°C° 0 mm 5 m/S 740 mmHg 94%
    13:00 -2°C° 0 mm 5 m/S 740 mmHg 93%
    14:00 -2°C° 0 mm 5 m/S 740 mmHg 92%
    15:00 -2°C° 0 mm 4 m/S 741 mmHg 93%
    16:00 -1°C° 0 mm 3 m/S 741 mmHg 93%
    17:00 -1°C° 0 mm 3 m/S 741 mmHg 94%
    18:00 -1°C° 0.2 mm 3 m/S 741 mmHg 96%
    19:00 -1°C° 0.2 mm 2 m/S 741 mmHg 97%
    20:00 -1°C° 0.2 mm 2 m/S 741 mmHg 98%
    21:00 -1°C° 0.2 mm 2 m/S 742 mmHg 99%
    22:00 -1°C° 0.2 mm 2 m/S 742 mmHg 99%
    23:00 +1°C° 0.2 mm 2 m/S 742 mmHg 99%

    1 Februar, Samstag

    Zeit Temperatur Niederschläge Wind Luftdruck Luftfeuchtigkeit
    00:00 +1°C° 0.2 mm 2 m/S 742 mmHg 99%
    01:00 +1°C° 0.2 mm 2 m/S 742 mmHg 99%
    02:00 +1°C° 0.2 mm 2 m/S 743 mmHg 99%
    03:00 +1°C° 0.2 mm 2 m/S 743 mmHg 99%
    04:00 +1°C° 0.2 mm 2 m/S 743 mmHg 99%
    05:00 +1°C° 0.2 mm 2 m/S 743 mmHg 99%
    06:00 +1°C° 0.1 mm 2 m/S 743 mmHg 99%
    07:00 +1°C° 0.1 mm 2 m/S 743 mmHg 99%
    08:00 +1°C° 0.1 mm 1 m/S 744 mmHg 99%
    09:00 +2°C° 0 mm 1 m/S 744 mmHg 99%
    10:00 +2°C° 0 mm 1 m/S 744 mmHg 99%
    11:00 +2°C° 0 mm 1 m/S 745 mmHg 99%
    12:00 +2°C° 0 mm 1 m/S 744 mmHg 100%
    13:00 +2°C° 0 mm 1 m/S 744 mmHg 100%
    14:00 +1°C° 0 mm 2 m/S 744 mmHg 100%
    15:00 +1°C° 0 mm 2 m/S 744 mmHg 99%
    16:00 +1°C° 0 mm 2 m/S 744 mmHg 99%
    17:00 +1°C° 0 mm 2 m/S 745 mmHg 99%
    18:00 +1°C° 0 mm 2 m/S 745 mmHg 99%
    19:00 0°C° 0 mm 3 m/S 744 mmHg 99%
    20:00 0°C° 0 mm 3 m/S 744 mmHg 99%
    21:00 0°C° 0 mm 3 m/S 744 mmHg 99%
    22:00 0°C° 0 mm 3 m/S 744 mmHg 98%
    23:00 0°C° 0 mm 3 m/S 744 mmHg 98%
    Mehr zeigen